Regional Weather Roundup
Issued by NWS Green Bay, WI

Home | Current Version | Previous Version | Text Only | Print | Product List | Glossary On
Versions: 1 2 3 4 5 6 7 8 9 10 11 12 13 14 15 16 17 18 19 20 21 22 23 24 25 26 27 28 29 30 31 32 33 34 35 36 37 38 39 40 41 42 43 44 45 46 47 48 49 50
000
ASUS43 KGRB 230700
RWRGRB

NORTH-CENTRAL AND NORTHEAST WISCONSIN REGIONAL WEATHER ROUNDUP
NATIONAL WEATHER SERVICE GREEN BAY WI
200 AM CDT SAT MAY 23 2015

WIZ005-009-010>012-018-019-230800-
NORTH CENTRAL WISCONSIN

CITY           SKY/WX    TMP DP  RH WIND       PRES   REMARKS
IRONWOOD       CLEAR     55  30  38 SW6       30.17R
MANITOWISH WTR NOT AVBL
ARBOR VITAE    NOT AVBL
EAGLE RIVER    NOT AVBL
LAND O LAKES   NOT AVBL
RHINELANDER    CLEAR     39  34  82 CALM      30.24S
PHILLIPS       NOT AVBL
ANTIGO         NOT AVBL
TOMAHAWK       NOT AVBL
MERRILL        NOT AVBL
$$

WIZ013-073-230800-
NORTHEAST WISCONSIN

CITY           SKY/WX    TMP DP  RH WIND       PRES   REMARKS
IRON MOUNTAIN  CLEAR     36  29  75 CALM      30.23F
MARINETTE      CLEAR     45  30  57 SW5       30.26S
$$

WIZ017-030-035>037-045-230800-
CENTRAL WISCONSIN

CITY           SKY/WX    TMP DP  RH WIND       PRES   REMARKS
MEDFORD        NOT AVBL
WAUSAU         CLEAR     43  40  89 E7        30.24R
MOSINEE        NOT AVBL
MARSHFIELD     CLEAR     50  37  61 CALM      30.24R
WISC RAPIDS    PTCLDY    51  36  56 S6        30.26R
STEVENS POINT  NOT AVBL
WAUPACA        NOT AVBL
SHAWANO        NOT AVBL
CLINTONVILLE   NOT AVBL
$$

WIZ038-039-048-051-230800-
FOX VALLEY

CITY           SKY/WX    TMP DP  RH WIND       PRES   REMARKS
NWS GREEN BAY  CLEAR     44  35  70 CALM      30.27R
APPLETON       NOT AVBL
OSHKOSH        PTCLDY    46  31  55 S6        30.26F
FOND DU LAC    PTCLDY    45  28  51 S3        30.27S
$$

WIZ022-050-052-230800-
EAST CENTRAL WISCONSIN

CITY           SKY/WX    TMP DP  RH WIND       PRES   REMARKS
STURGEON BAY   CLEAR     48  25  40 S7        30.29S
MANITOWOC      NOT AVBL
SHEBOYGAN      PTCLDY    42  30  62 SW7       30.28R
$$

LMZ563-521-522-541>543-230800-
LAKESHORE

STATION/POSITION TIME  TEMP    WIND        PRES    VSBY  WAVE
                       AIR SEA DIR/SP/G                  HT/PER
                 (UTC) (F)     (DEG/KT/KT) (MB)    (MI)  (FT/S)
SHEBOYGAN LKSHOR 0600   51     220/ 11/ 14 1025.7S
KEWAUNEE LKSHORE 0600   47     200/  2/  5 1024.1F
NORTHPORT PIER   0600   45     160/  3/ 16 1024.7F
N MID LAKE BUOY  0550   40 36  210/  6/  6 1026.0S         0
SISTER BAY LKSHO 0602   45     180/  6/  8   N/A
CHAMBERS ISLAND  0600   44     150/  3/  4 1024.7F
MENOMINEE LKSHOR 0600   50     180/  6/  8 1025.1F
$$


USA.gov is the U.S. government's official web portal to all federal, state and local government web resources and services.